This is the latest recevied weather packets stored in our database for station/object N5COP-13. If no packets are shown the sender has not sent any weather packets the latest 10 day(s).
| Time | Temp. | Humidity | Pressure | Rain* | Wind** | Luminosity | Snow |
|---|---|---|---|---|---|---|---|
| 1777848255 | 25.56° C | 25% | 1013.1 hPa | 0 mm | - | 410 W/m² | - |
| 1777847953 | 25.56° C | 25% | 1013.1 hPa | 0 mm | - | 431 W/m² | - |
| 1777847650 | 25° C | 26% | 1013.1 hPa | 0 mm | - | 439 W/m² | - |
| 1777847345 | 25° C | 25% | 1013.3 hPa | 0 mm | - | 394 W/m² | - |
| 1777847044 | 25.56° C | 25% | 1013.2 hPa | 0 mm | - | 453 W/m² | - |
| 1777846742 | 25.56° C | 24% | 1013.4 hPa | 0 mm | - | 477 W/m² | - |
| 1777846440 | 25.56° C | 23% | 1013.4 hPa | 0 mm | - | 505 W/m² | - |
| 1777846136 | 25° C | 22% | 1013.6 hPa | 0 mm | - | 521 W/m² | - |
| 1777845833 | 25.56° C | 22% | 1013.6 hPa | 0 mm | - | 530 W/m² | - |
| 1777845530 | 25° C | 23% | 1013.7 hPa | 0 mm | - | 544 W/m² | - |
| 1777845227 | 25° C | 22% | 1013.9 hPa | 0 mm | - | 559 W/m² | - |
| 1777844924 | 25.56° C | 23% | 1014.1 hPa | 0 mm | - | 563 W/m² | - |
| 1777844617 | 25.56° C | 23% | 1014.1 hPa | 0 mm | - | 594 W/m² | - |
| 1777844314 | 25° C | 22% | 1014 hPa | 0 mm | - | 593 W/m² | - |
| 1777844011 | 25° C | 25% | 1014.4 hPa | 0 mm | - | 582 W/m² | - |
| 1777843708 | 25.56° C | 25% | 1014.6 hPa | 0 mm | - | 626 W/m² | - |
| 1777843406 | 25° C | 25% | 1014.5 hPa | 0 mm | - | 251 W/m² | - |
| 1777843103 | 25° C | 25% | 1014.9 hPa | 0 mm | - | 555 W/m² | - |
| 1777842800 | 25° C | 25% | 1014.9 hPa | 0 mm | - | 717 W/m² | - |
| 1777842500 | 23.89° C | 25% | 1015 hPa | 0 mm | - | 666 W/m² | - |
| 1777842197 | 24.44° C | 24% | 1015.1 hPa | 0 mm | - | 402 W/m² | - |
| 1777841892 | 24.44° C | 24% | 1015.2 hPa | 0 mm | - | 494 W/m² | - |
| 1777841589 | 24.44° C | 24% | 1015.2 hPa | 0 mm | - | 458 W/m² | - |
| 1777841286 | 24.44° C | 25% | 1015.4 hPa | 0 mm | - | 601 W/m² | - |
| 1777840984 | 24.44° C | 26% | 1015.4 hPa | 0 mm | - | 551 W/m² | - |
* Rain latest hour (hover to see other rain measurements)
** Current wind speed in m/s (hover to see current wind gust speed)